Hourly Data Report for May 15, 2020

STE-ANNE-DE-BELLEVUE 1
QUEBEC
Current Station Operator: ECCC - MSC

45°25'38.000" N
73°55'45.000" W
39.00 m
702FHL8
71377
WVQ

Download Data

Hourly Data (May 2020)
Hourly Data Report for May 15, 2020
TIME
LST
Temp Definition
°C
Dew Point Definition
°C
Rel Hum Definition
%
Precip. Amount Definition
mm

Wind Dir Definition
10's deg

Wind Spd Definition
km/h
Visibility Definition
km
Stn Press Definition
kPa
Hmdx Definition


Wind Chill Definition


Weather Definition


00:00 13.9 -3.4 30 0.0 12 9   100.87     LegendNANA
01:00 13.4 -1.6 35 0.0 5 5   100.87     LegendNANA
02:00 12.8 -1.6 37 0.0 2 5   100.82     LegendNANA
03:00 11.6 3.5 57 0.0 6 13   100.79     LegendNANA
04:00 10.4 5.1 70 0.0 3 10   100.81     LegendNANA
05:00 10.6 4.4 66 0.0 5 5   100.83     LegendNANA
06:00 10.2 5.1 71 0.0 3 10   100.82     LegendNANA
07:00 10.6 5.4 70 0.0 4 10   100.84     LegendNANA
08:00 11.1 5.6 69 0.0 5 10   100.77     LegendNANA
09:00 11.9 5.0 63 0.0 6 6   100.75     LegendNANA
10:00 12.5 5.2 61 0.0 5 4   100.73     LegendNANA
11:00 13.4 6.2 62 0.0 3 8   100.66     LegendNANA
12:00 13.7 7.7 67 0.0 8 6   100.59     LegendNANA
13:00 12.4 9.8 84 0.4 6 8   100.48     LegendNANA
14:00 11.3 10.0 91 3.1 3 10   100.39     LegendNANA
15:00 10.7 9.9 95 5.2 35 18   100.43     LegendNANA
16:00 10.7 10.1 96 8.9 1 15   100.35     LegendNANA
17:00 10.8 10.0 95 2.5 3 11   100.34     LegendNANA
18:00 10.9 9.9 94 0.6 3 7   100.29     LegendNANA
19:00 10.7 9.8 94 0.0 32 11   100.43     LegendNANA
20:00 10.6 9.5 93 0.0 33 14   100.53     LegendNANA
21:00 10.7 9.5 92 0.0 31 10   100.60     LegendNANA
22:00 10.6 9.3 92 0.0 31 7   100.66     LegendNANA
23:00 10.6 9.7 94 0.0 27 9   100.66     LegendNANA

Notes on Data Quality.

Legend

  • E = Estimated
  • M = Missing
  • NA = Not Available*
  • [empty] = Indicates an unobserved value
Date modified: